McConnell AFB, KS

9:47 AM CDT on March 23, 2017 (GMT -0500)
McConnell Air Force Base

Weather History for KIAB - March, 2013

Change the Weather History Date:

Sunday, March 31, 2013

  Actual Average Record
Temperature  
Mean Temperature 56 °F -  
Max Temperature 64 °F 63 °F 82 °F (2015)
Min Temperature 47 °F 41 °F 32 °F (2011)
Degree Days  
Heating Degree Days 10    
Growing Degree Days 6 (Base 50)    
Moisture  
Dew Point 45 °F    
Average Humidity 73    
Maximum Humidity 100    
Minimum Humidity 35    
Precipitation  
Precipitation 0.01 in - - ()
Sea Level Pressure  
Sea Level Pressure 30.01 in    
Wind  
Wind Speed 11 mph (NNW)    
Max Wind Speed 26 mph    
Max Gust Speed 38 mph    
Visibility 10 miles    
Events Rain    
Averages and records for this station are not official NWS values.
T = Trace of Precipitation, MM = Missing Value Source: NWS Daily Summary

Daily Weather History Graph

Daily Weather History Graph

Search for Another Location

Airport or City:

Trip Planner

Search our weather history database for the weather conditions in past years. The results will help you decide how hot, cold, wet, or windy it might be!

Date:

Astronomy

Mar. 31, 2013 Rise Set
Actual Time 7:15 AM CDT 7:51 PM CDT
Civil Twilight 6:49 AM CDT 8:17 PM CDT
Nautical Twilight 6:18 AM CDT 8:48 PM CDT
Astronomical Twilight 5:46 AM CDT 9:20 PM CDT
Moon No Moon Rise 10:09 AM CDT (3/31)
Length of Visible Light 13h 28m
Length of Day
12h 35m
Waning Gibbous, 77% of the Moon is Illuminated
Mar 31
Waning Gibbous
Apr 2
Last Quarter
Apr 10
New
Apr 18
First Quarter
Apr 25
Full

Hourly Weather History & Observations

Time (CDT) Temp. Dew Point Humidity Pressure Visibility Wind Dir Wind Speed Gust Speed Precip Events Conditions
12:58 AM 57.4 °F 57.4 °F 100% 29.96 in 10.0 mi North 9.2 mph - N/A   Clear
1:58 AM 56.8 °F 53.1 °F 87% 30.00 in 10.0 mi NNW 23.0 mph 28.8 mph N/A   Mostly Cloudy
2:17 AM 53.6 °F 50.0 °F 88% 30.03 in 10.0 mi NNW 26.5 mph 38.0 mph N/A   Light Drizzle
2:58 AM 51.8 °F 51.8 °F 100% 30.04 in 10.0 mi North 10.4 mph - 0.00 in Rain Light Rain
3:24 AM 50.0 °F 50.0 °F 100% 30.02 in 10.0 mi North 11.5 mph - N/A   Overcast
3:58 AM 50.0 °F 50.0 °F 100% 30.04 in 10.0 mi North 6.9 mph - 0.01 in   Mostly Cloudy
4:58 AM 47.5 °F 47.5 °F 100% 30.02 in 10.0 mi NNW 3.5 mph - N/A   Clear
5:58 AM 47.5 °F 47.5 °F 100% 30.01 in 10.0 mi NNW 4.6 mph - N/A   Clear
6:58 AM 47.5 °F 47.5 °F 100% 30.04 in 10.0 mi WNW 5.8 mph - N/A   Clear
7:58 AM 47.5 °F 47.5 °F 100% 30.04 in 10.0 mi North 10.4 mph - N/A   Clear
8:58 AM 50.0 °F 50.0 °F 100% 30.06 in 10.0 mi NNW 10.4 mph - N/A   Clear
9:58 AM 52.3 °F 50.9 °F 95% 30.05 in 10.0 mi NNW 10.4 mph - N/A   Clear
10:58 AM 55.0 °F 49.3 °F 81% 30.05 in 10.0 mi NW 10.4 mph - N/A   Clear
11:58 AM 58.1 °F 48.7 °F 71% 30.04 in 10.0 mi NW 10.4 mph - N/A   Clear
12:58 PM 61.2 °F 47.1 °F 60% 30.04 in 10.0 mi NNW 8.1 mph 16.1 mph N/A   Clear
1:58 PM 61.3 °F 44.4 °F 54% 30.03 in 10.0 mi NW 11.5 mph - N/A   Clear
2:58 PM 64.0 °F 38.3 °F 39% 30.02 in 10.0 mi NW 12.7 mph 19.6 mph N/A   Clear
3:58 PM 64.6 °F 38.1 °F 38% 30.00 in 10.0 mi North 10.4 mph - N/A   Clear
4:58 PM 64.6 °F 36.1 °F 35% 29.98 in 10.0 mi NNW 10.4 mph - N/A   Clear
5:58 PM 64.4 °F 37.2 °F 37% 29.98 in 10.0 mi North 9.2 mph - N/A   Clear
6:58 PM 63.3 °F 36.1 °F 36% 29.96 in 10.0 mi NNW 5.8 mph - N/A   Clear
7:58 PM 58.5 °F 38.1 °F 47% 29.98 in 10.0 mi NNE 9.2 mph - N/A   Clear
8:58 PM 56.3 °F 36.3 °F 47% 30.00 in 10.0 mi NE 2.3 mph - N/A   Clear
9:58 PM 56.3 °F 37.0 °F 48% 30.01 in 10.0 mi East 5.8 mph - N/A   Clear
10:58 PM 51.8 °F 39.6 °F 63% 29.98 in 10.0 mi SSE 5.8 mph - N/A   Clear
11:58 PM 49.8 °F 39.9 °F 69% 29.98 in 10.0 mi South 4.6 mph - N/A   Clear